GW0483 Weather Reports


Display with metric or nautical units.
time (UTC)temp
F
wind
direction
speed
MPH
gust
MPH
rain 1hr
in
rain 24hr
in
rain mn
in
humidity
%
barometer
mb
20260905204624 98 35 2.0 2.0 0.00 0.00 0.00 45 1010.2
20260905204120 97 138 1.0 2.0 0.00 0.00 0.00 45 1010.5
20260905203619 97 34 4.0 7.0 0.00 0.00 0.00 47 1010.7
20260905203115 97 196 3.0 5.0 0.00 0.00 0.00 47 1010.7
20260905202610 96 79 2.0 2.0 0.00 0.00 0.00 47 1010.7
20260905202105 97 147 4.0 5.0 0.00 0.00 0.00 48 1011.0
20260905201601 94 62 3.0 5.0 0.00 0.00 0.00 50 1010.9
20260905201100 95 116 3.0 3.0 0.00 0.00 0.00 49 1011.0
20260905200556 94 89 2.0 2.0 0.00 0.00 0.00 51 1011.1
20260905200050 93 123 3.0 5.0 0.00 0.00 0.00 53 1011.2
20260905195544 96 54 2.0 3.0 0.00 0.00 0.00 50 1011.2
20260905195040 97 140 2.0 2.0 0.00 0.00 0.00 47 1011.4
20260905194539 96 133 4.0 5.0 0.00 0.00 0.00 48 1011.4
20260905194038 96 155 5.0 7.0 0.00 0.00 0.00 49 1011.4
20260905193534 96 173 2.0 3.0 0.00 0.00 0.00 49 1011.6
20260905193029 96 148 2.0 2.0 0.00 0.00 0.00 50 1011.6
20260905192524 96 251 3.0 3.0 0.00 0.00 0.00 48 1011.8
20260905192020 96 48 0.0 1.0 0.00 0.00 0.00 49 1011.7
20260905191519 94 125 2.0 2.0 0.00 0.00 0.00 52 1012.0
20260905191018 95 136 2.0 2.0 0.00 0.00 0.00 54 1012.1
20260905190516 93 318 2.0 3.0 0.00 0.00 0.00 56 1012.2
20260905190010 91 116 2.0 2.0 0.00 0.00 0.00 59 1012.2
20260905185504 91 77 0.0 1.0 0.00 0.00 0.00 59 1012.5
20260905185003 92 85 1.0 1.0 0.00 0.00 0.00 60 1012.4
20260905184459 94 141 2.0 2.0 0.00 0.00 0.00 58 1012.5
20260905183957 95 186 3.0 6.0 0.00 0.00 0.00 57 1013.1
20260905183457 95 85 3.0 5.0 0.00 0.00 0.00 55 1013.0
20260905182951 94 161 2.0 2.0 0.00 0.00 0.00 55 1013.0
20260905182451 93 250 3.0 3.0 0.00 0.00 0.00 57 1013.0
20260905181946 93 140 4.0 6.0 0.00 0.00 0.00 56 1013.1
20260905181441 93 99 1.0 2.0 0.00 0.00 0.00 57 1013.1
20260905180940 93 160 3.0 5.0 0.00 0.00 0.00 57 1013.2
20260905180435 93 140 6.0 8.0 0.00 0.00 0.00 58 1013.2
20260905175930 92 79 3.0 5.0 0.00 0.00 0.00 59 1013.1
20260905175430 93 125 2.0 3.0 0.00 0.00 0.00 59 1013.1
20260905174925 93 139 3.0 5.0 0.00 0.00 0.00 57 1013.2
20260905174420 92 109 2.0 2.0 0.00 0.00 0.00 61 1013.4
20260905173916 92 104 2.0 2.0 0.00 0.00 0.00 62 1013.3
20260905173413 91 137 1.0 2.0 0.00 0.00 0.00 63 1013.6
20260905172913 91 139 3.0 3.0 0.00 0.00 0.00 62 1013.6
20260905172410 91 128 2.0 2.0 0.00 0.00 0.00 63 1013.4
20260905171907 90 152 1.0 2.0 0.00 0.00 0.00 65 1013.7
20260905171403 90 180 3.0 3.0 0.00 0.00 0.00 66 1013.6
20260905170900 90 54 1.0 2.0 0.00 0.00 0.00 65 1013.7
20260905170355 88 121 4.0 5.0 0.00 0.00 0.00 68 1013.9
20260905165854 88 138 3.0 6.0 0.00 0.00 0.00 69 1013.8
20260905165350 87 139 4.0 5.0 0.00 0.00 0.00 72 1013.9
20260905164844 86 132 3.0 3.0 0.00 0.00 0.00 74 1013.8
20260905164339 87 156 3.0 6.0 0.00 0.00 0.00 73 1014.0
20260905163835 87 96 2.0 2.0 0.00 0.00 0.00 74 1013.9
20260905163331 86 61 1.0 1.0 0.00 0.00 0.00 73 1014.0
20260905162827 86 125 3.0 3.0 0.00 0.00 0.00 76 1013.9
20260905162326 86 179 3.0 5.0 0.00 0.00 0.00 75 1013.9
20260905161821 86 122 2.0 2.0 0.00 0.00 0.00 75 1013.9
20260905161320 86 140 3.0 3.0 0.00 0.00 0.00 76 1014.0
20260905160818 85 167 3.0 3.0 0.00 0.00 0.00 75 1013.9
20260905160313 85 218 2.0 2.0 0.00 0.00 0.00 76 1014.1
20260905155808 85 133 3.0 5.0 0.00 0.00 0.00 76 1014.2
20260905155307 85 87 2.0 2.0 0.00 0.00 0.00 77 1014.1
20260905154801 85 99 2.0 2.0 0.00 0.00 0.00 76 1013.8
20260905154257 85 135 2.0 2.0 0.00 0.00 0.00 78 1013.9
20260905153752 84 33 1.0 2.0 0.00 0.00 0.00 79 1014.1
20260905153248 84 39 3.0 3.0 0.00 0.00 0.00 80 1013.8
20260905152742 83 179 1.0 2.0 0.00 0.00 0.00 80 1013.9
20260905152236 84 285 2.0 2.0 0.00 0.00 0.00 79 1013.8
20260905151731 85 128 2.0 3.0 0.00 0.00 0.00 78 1014.0
20260905151227 85 121 4.0 5.0 0.00 0.00 0.00 79 1013.8
20260905150727 84 144 3.0 3.0 0.00 0.00 0.00 81 1013.8
20260905150226 83 296 3.0 5.0 0.00 0.00 0.00 83 1013.8
20260905145723 84 79 4.0 6.0 0.00 0.00 0.00 81 1013.9
20260905145219 83 101 1.0 2.0 0.00 0.00 0.00 82 1013.9
20260905144718 83 62 3.0 7.0 0.00 0.00 0.00 83 1013.8
20260905144217 83 128 3.0 3.0 0.00 0.00 0.00 84 1013.5
20260905143712 82 163 5.0 6.0 0.00 0.00 0.00 84 1013.7
20260905143212 82 117 2.0 2.0 0.00 0.00 0.00 87 1013.9
20260905142710 82 178 2.0 5.0 0.00 0.00 0.00 87 1013.7
20260905142204 81 135 2.0 2.0 0.00 0.00 0.00 89 1013.8
20260905141700 80 113 1.0 1.0 0.00 0.00 0.00 91 1013.8
20260905141155 80 147 2.0 2.0 0.00 0.00 0.00 92 1013.6
20260905140651 79 111 1.0 1.0 0.00 0.00 0.00 93 1013.5
20260905140145 79 140 1.0 2.0 0.00 0.00 0.00 94 1013.8
20260905135640 78 125 2.0 3.0 0.00 0.00 0.00 95 1013.9
20260905135135 78 96 2.0 2.0 0.00 0.00 0.00 96 1013.4
20260905134624 78 199 3.0 3.0 0.00 0.00 0.00 96 1013.5
20260905134123 78 281 2.0 2.0 0.00 0.00 0.00 97 1013.6
20260905133619 78 60 1.0 1.0 0.00 0.00 0.00 97 1013.5
20260905133119 78 121 2.0 2.0 0.00 0.00 0.00 97 1013.2
20260905132618 77 104 1.0 1.0 0.00 0.00 0.00 97 1013.2
20260905132113 77 138 1.0 2.0 0.00 0.00 0.00 98 1013.5
20260905131608 77 66 0.0 1.0 0.00 0.00 0.00 97 1013.4
20260905131104 77 102 1.0 2.0 0.00 0.00 0.00 97 1013.2
20260905130603 77 101 0.0 1.0 0.00 0.00 0.00 98 1013.1
20260905130057 77 98 0.0 0.0 0.00 0.00 0.00 98 1013.1
20260905125557 77 86 1.0 1.0 0.00 0.00 0.00 97 1013.0
20260905125053 77 68 0.0 1.0 0.00 0.00 0.00 97 1012.8
20260905124549 77 60 0.0 0.0 0.00 0.00 0.00 97 1012.9
20260905124045 76 71 0.0 1.0 0.00 0.00 0.00 97 1012.8
20260905123540 76 71 0.0 0.0 0.00 0.00 0.00 97 1012.9
20260905123037 76 54 0.0 0.0 0.00 0.00 0.00 97 1012.6
20260905122536 76 67 0.0 1.0 0.00 0.00 0.00 97 1012.4
20260905122031 76 92 2.0 3.0 0.00 0.00 0.00 97 1012.4
20260905121526 76 88 1.0 1.0 0.00 0.00 0.00 97 1012.5
20260905121021 76 105 2.0 2.0 0.00 0.00 0.00 97 1012.5
20260905120520 76 94 1.0 1.0 0.00 0.00 0.00 97 1012.8
20260905120016 76 60 0.0 1.0 0.00 0.00 0.00 97 1012.5
20260905115515 76 58 1.0 1.0 0.00 0.00 0.00 97 1012.4
20260905115009 76 56 0.0 0.0 0.00 0.00 0.00 97 1012.5
20260905114504 76 55 0.0 0.0 0.00 0.00 0.00 97 1012.6
20260905114003 76 60 0.0 1.0 0.00 0.00 0.00 97 1012.3
20260905113458 76 69 0.0 0.0 0.00 0.00 0.00 97 1012.5
20260905112953 76 71 0.0 1.0 0.00 0.00 0.00 97 1012.5
20260905112448 76 64 0.0 0.0 0.00 0.00 0.00 97 1012.5
20260905111944 76 72 1.0 1.0 0.00 0.00 0.00 97 1012.5
20260905111443 76 62 0.0 1.0 0.00 0.00 0.00 97 1012.5
20260905110938 76 192 2.0 2.0 0.00 0.00 0.00 97 1012.3
20260905110431 76 72 0.0 0.0 0.00 0.00 0.00 96 1012.2
20260905105932 77 47 0.0 0.0 0.00 0.00 0.00 96 1012.4
20260905105426 77 78 1.0 1.0 0.00 0.00 0.00 96 1012.3
20260905104925 77 69 1.0 1.0 0.00 0.00 0.00 96 1012.2
20260905104421 77 64 0.0 1.0 0.00 0.00 0.00 96 1012.4
20260905103916 77 93 1.0 1.0 0.00 0.00 0.00 96 1012.2
20260905103412 77 154 1.0 1.0 0.00 0.00 0.00 96 1012.2
20260905102907 77 134 2.0 2.0 0.00 0.00 0.00 96 1012.2
20260905102404 77 75 0.0 1.0 0.00 0.00 0.00 96 1012.1
20260905101858 77 55 1.0 1.0 0.00 0.00 0.00 96 1012.0
20260905101356 77 67 0.0 1.0 0.00 0.00 0.00 96 1012.2
20260905100857 77 61 0.0 0.0 0.00 0.00 0.00 96 1012.3
20260905100352 77 55 0.0 0.0 0.00 0.00 0.00 96 1012.0
20260905095851 77 70 0.0 1.0 0.00 0.00 0.00 96 1012.0
20260905095346 77 147 1.0 1.0 0.00 0.00 0.00 96 1012.1
20260905094841 77 54 0.0 1.0 0.00 0.00 0.00 96 1012.1
20260905094337 77 58 0.0 0.0 0.00 0.00 0.00 96 1011.9
20260905093835 77 64 0.0 0.0 0.00 0.00 0.00 96 1012.1
20260905093326 77 65 0.0 0.0 0.00 0.00 0.00 95 1012.2
20260905092822 77 52 0.0 0.0 0.00 0.00 0.00 95 1012.0
20260905092321 77 61 0.0 0.0 0.00 0.00 0.00 95 1012.2
20260905091817 77 69 0.0 1.0 0.00 0.00 0.00 95 1011.9
20260905091316 77 62 0.0 0.0 0.00 0.00 0.00 95 1012.2
20260905090815 77 49 0.0 1.0 0.00 0.00 0.00 95 1012.3
20260905090311 77 58 0.0 1.0 0.00 0.00 0.00 95 1012.2
20260905085811 77 59 0.0 0.0 0.00 0.00 0.00 95 1012.2
20260905085310 77 69 0.0 0.0 0.00 0.00 0.00 95 1012.2
20260905084800 77 73 0.0 1.0 0.00 0.00 0.00 94 1012.0
20260905084300 77 75 1.0 1.0 0.00 0.00 0.00 94 1012.1
20260905083755 77 71 1.0 1.0 0.00 0.00 0.00 94 1012.1
20260905083251 77 66 0.0 0.0 0.00 0.00 0.00 94 1012.2
20260905082746 78 82 0.0 1.0 0.00 0.00 0.00 94 1012.3
20260905082242 78 144 1.0 2.0 0.00 0.00 0.00 94 1012.3
20260905081741 78 62 1.0 2.0 0.00 0.00 0.00 94 1012.5
20260905081237 78 85 1.0 2.0 0.00 0.00 0.00 93 1012.5
20260905080731 78 89 1.0 1.0 0.00 0.00 0.00 93 1012.3
20260905080231 78 67 1.0 2.0 0.00 0.00 0.00 93 1012.5
20260905075730 78 213 1.0 1.0 0.00 0.00 0.00 93 1012.4
20260905075229 78 154 1.0 2.0 0.00 0.00 0.00 93 1012.5
20260905074728 78 114 1.0 1.0 0.00 0.00 0.00 93 1012.5
20260905074224 78 106 2.0 2.0 0.00 0.00 0.00 93 1012.3
20260905073720 78 118 1.0 2.0 0.00 0.00 0.00 92 1012.8
20260905073215 78 124 1.0 1.0 0.00 0.00 0.00 92 1012.9
20260905072714 78 72 1.0 1.0 0.00 0.00 0.00 92 1012.6
20260905072210 78 109 3.0 3.0 0.00 0.00 0.00 92 1012.8
20260905071706 78 156 3.0 3.0 0.00 0.00 0.00 91 1012.9
20260905071202 78 96 2.0 2.0 0.00 0.00 0.00 91 1013.0
20260905070656 78 104 2.0 2.0 0.00 0.00 0.00 90 1012.8
20260905070153 78 86 1.0 2.0 0.00 0.00 0.00 90 1012.9
20260905065651 78 149 3.0 3.0 0.00 0.00 0.00 90 1012.8
20260905065145 78 125 2.0 2.0 0.00 0.00 0.00 89 1013.0
20260905064641 78 82 1.0 1.0 0.00 0.00 0.00 89 1012.9
20260905064137 78 70 1.0 2.0 0.00 0.00 0.00 89 1013.0
20260905063635 78 66 1.0 2.0 0.00 0.00 0.00 89 1013.0
20260905063132 78 164 2.0 2.0 0.00 0.00 0.00 88 1013.0
20260905062627 78 103 2.0 2.0 0.00 0.00 0.00 88 1013.0
20260905062126 78 165 2.0 3.0 0.00 0.00 0.00 88 1013.0
20260905061621 78 138 2.0 2.0 0.00 0.00 0.00 87 1013.0
20260905061121 78 121 2.0 3.0 0.00 0.00 0.00 87 1013.1
20260905060616 78 70 1.0 1.0 0.00 0.00 0.00 87 1012.9
20260905060113 78 102 1.0 1.0 0.00 0.00 0.00 86 1012.8
20260905055611 79 107 2.0 3.0 0.00 0.00 0.00 86 1012.9
20260905055106 79 96 2.0 2.0 0.00 0.00 0.00 85 1012.9
20260905054602 79 67 1.0 1.0 0.00 0.00 0.00 85 1013.0
20260905054057 79 116 2.0 2.0 0.00 0.00 0.00 85 1013.1
20260905053556 79 160 3.0 3.0 0.00 0.00 0.00 84 1012.6
20260905053052 79 62 1.0 2.0 0.00 0.00 0.00 84 1013.1
20260905052551 79 139 3.0 3.0 0.00 0.00 0.00 84 1013.0
20260905052046 79 14 2.0 2.0 0.00 0.00 0.00 83 1013.1
20260905051541 79 142 2.0 2.0 0.00 0.00 0.00 83 1013.0
20260905051038 79 127 2.0 2.0 0.00 0.00 0.00 83 1012.9
20260905050534 80 109 1.0 2.0 0.00 0.00 0.00 82 1013.1
20260905050031 80 83 1.0 2.0 0.00 0.00 0.00 82 1012.9
20260905045526 80 135 2.0 2.0 0.00 0.00 0.00 82 1013.0
20260905045021 80 19 2.0 2.0 0.00 0.00 0.00 81 1013.0
20260905044520 80 111 1.0 2.0 0.00 0.00 0.00 81 1013.0
20260905044015 80 114 1.0 2.0 0.00 0.00 0.00 81 1013.0
20260905043515 80 106 2.0 2.0 0.00 0.00 0.00 80 1013.1
20260905043010 80 124 2.0 2.0 0.00 0.00 0.00 80 1013.3
20260905042508 80 80 1.0 2.0 0.00 0.00 0.00 80 1013.1
20260905042004 80 143 2.0 3.0 0.00 0.00 0.00 79 1013.2
20260905041459 80 94 1.0 3.0 0.00 0.00 0.00 79 1013.2
20260905040955 80 119 2.0 2.0 0.00 0.00 0.00 79 1012.9
20260905040454 80 101 2.0 2.0 0.00 0.00 0.00 78 1012.8
20260905035953 81 130 2.0 2.0 0.00 0.00 0.00 78 1013.0
20260905035448 81 43 1.0 1.0 0.00 0.00 0.00 78 1012.8
20260905034946 81 58 2.0 3.0 0.00 0.00 0.00 77 1012.9
20260905034441 81 195 3.0 3.0 0.00 0.00 0.00 77 1013.0
20260905033939 81 88 3.0 3.0 0.00 0.00 0.00 77 1012.8
20260905033439 81 59 1.0 2.0 0.00 0.00 0.00 76 1012.6
20260905032934 81 105 3.0 5.0 0.00 0.00 0.00 76 1012.6
20260905032430 81 94 2.0 3.0 0.00 0.00 0.00 76 1012.6
20260905031924 81 121 2.0 2.0 0.00 0.00 0.00 75 1012.6
20260905031420 81 77 2.0 2.0 0.00 0.00 0.00 75 1012.6
20260905030916 81 111 2.0 3.0 0.00 0.00 0.00 75 1012.8
20260905030411 81 133 2.0 2.0 0.00 0.00 0.00 74 1012.4
20260905025910 82 103 2.0 2.0 0.00 0.00 0.00 74 1012.6
20260905025405 82 108 3.0 3.0 0.00 0.00 0.00 74 1012.4
20260905024902 82 88 0.0 1.0 0.00 0.00 0.00 74 1012.3
20260905024356 81 109 2.0 2.0 0.00 0.00 0.00 74 1012.3
20260905023852 81 93 1.0 1.0 0.00 0.00 0.00 74 1012.1
20260905023347 82 96 1.0 1.0 0.00 0.00 0.00 74 1012.1
20260905022846 82 88 1.0 2.0 0.00 0.00 0.00 73 1012.0
20260905022341 82 23 2.0 2.0 0.00 0.00 0.00 73 1011.9
20260905021836 82 133 3.0 3.0 0.00 0.00 0.00 73 1011.8
20260905021331 82 120 1.0 2.0 0.00 0.00 0.00 73 1011.9
20260905020826 82 68 1.0 1.0 0.00 0.00 0.00 72 1012.0
20260905020321 82 121 1.0 2.0 0.00 0.00 0.00 72 1011.7
20260905015819 82 94 2.0 2.0 0.00 0.00 0.00 72 1011.6
20260905015314 82 114 1.0 1.0 0.00 0.00 0.00 72 1011.7
20260905014813 83 110 3.0 3.0 0.00 0.00 0.00 71 1011.9
20260905014309 83 109 1.0 1.0 0.00 0.00 0.00 71 1012.0
20260905013804 83 83 1.0 2.0 0.00 0.00 0.00 70 1011.7
20260905013300 83 165 2.0 2.0 0.00 0.00 0.00 70 1011.9
20260905012755 84 162 1.0 2.0 0.00 0.00 0.00 70 1011.7
20260905012250 84 72 0.0 1.0 0.00 0.00 0.00 69 1011.6
20260905011747 84 87 3.0 3.0 0.00 0.00 0.00 69 1011.5
20260905011243 84 109 2.0 2.0 0.00 0.00 0.00 68 1011.6
20260905010737 84 231 1.0 2.0 0.00 0.00 0.00 68 1011.4
20260905010232 85 126 2.0 2.0 0.00 0.00 0.00 68 1011.5
20260905005730 85 120 1.0 2.0 0.00 0.00 0.00 67 1011.3
20260905005225 85 113 1.0 1.0 0.00 0.00 0.00 67 1011.4
20260905004719 85 95 2.0 2.0 0.00 0.00 0.00 66 1011.4
20260905004215 86 106 2.0 3.0 0.00 0.00 0.00 64 1011.4
20260905003714 87 134 2.0 2.0 0.00 0.00 0.00 61 1011.3
20260905003210 87 49 2.0 2.0 0.00 0.00 0.00 61 1011.2
20260905002706 87 92 1.0 2.0 0.00 0.00 0.00 60 1011.3
20260905002205 88 99 2.0 2.0 0.00 0.00 0.00 60 1011.0
20260905001701 88 134 1.0 2.0 0.00 0.00 0.00 59 1011.1
20260905001200 88 197 6.0 7.0 0.00 0.00 0.00 58 1010.8
20260905000655 88 137 3.0 3.0 0.00 0.00 0.00 58 1010.7
20260905000151 89 116 2.0 2.0 0.00 0.00 0.00 57 1011.0
20260904235651 89 162 4.0 5.0 0.00 0.00 0.00 57 1010.8
20260904235150 89 120 1.0 1.0 0.00 0.00 0.00 58 1010.9
20260904234645 90 143 2.0 2.0 0.00 0.00 0.00 56 1010.8
20260904234141 89 143 2.0 3.0 0.00 0.00 0.00 56 1010.6
20260904233637 90 171 4.0 6.0 0.00 0.00 0.00 56 1010.7
20260904233132 90 63 1.0 1.0 0.00 0.00 0.00 57 1010.8
20260904232629 90 156 5.0 8.0 0.00 0.00 0.00 57 1010.8
20260904232125 91 100 3.0 3.0 0.00 0.00 0.00 58 1011.0
20260904231620 90 69 2.0 2.0 0.00 0.00 0.00 58 1010.7
20260904231115 91 123 2.0 2.0 0.00 0.00 0.00 58 1010.8
20260904230615 91 153 2.0 2.0 0.00 0.00 0.00 57 1010.9
20260904230110 92 90 1.0 1.0 0.00 0.00 0.00 57 1010.9
20260904225608 92 190 1.0 1.0 0.00 0.00 0.00 57 1010.8
20260904225103 91 46 1.0 2.0 0.00 0.00 0.00 58 1011.0
20260904224557 91 142 3.0 5.0 0.00 0.00 0.00 59 1010.8
20260904224052 91 171 4.0 6.0 0.00 0.00 0.00 59 1010.8
20260904223551 92 137 5.0 7.0 0.00 0.00 0.00 59 1011.0
20260904223047 91 136 3.0 3.0 0.00 0.00 0.00 60 1011.1
20260904222543 92 148 5.0 6.0 0.00 0.00 0.00 60 1011.1
20260904222038 92 153 3.0 3.0 0.00 0.00 0.00 60 1011.1
20260904221532 92 153 3.0 3.0 0.00 0.00 0.00 61 1011.0
20260904221027 89 137 3.0 5.0 0.00 0.00 0.00 62 1011.0
20260904220526 89 147 2.0 3.0 0.00 0.00 0.00 63 1011.1
20260904220022 89 112 2.0 2.0 0.00 0.00 0.00 63 1011.0
20260904215522 89 154 2.0 2.0 0.00 0.00 0.00 64 1011.2
20260904215018 88 93 2.0 5.0 0.00 0.00 0.00 64 1011.4
20260904214513 89 122 3.0 5.0 0.00 0.00 0.00 64 1011.4
20260904214008 89 143 3.0 3.0 0.00 0.00 0.00 64 1011.5
20260904213507 89 86 2.0 2.0 0.00 0.00 0.00 63 1011.7
20260904213004 89 138 1.0 1.0 0.00 0.00 0.00 63 1011.4
20260904212503 89 135 3.0 3.0 0.00 0.00 0.00 63 1011.9
20260904211958 89 87 2.0 2.0 0.00 0.00 0.00 63 1011.5
20260904211452 89 151 3.0 3.0 0.00 0.00 0.00 63 1012.1
20260904210948 89 138 5.0 6.0 0.00 0.00 0.00 63 1011.9
20260904210447 89 137 3.0 3.0 0.00 0.00 0.00 64 1012.1
20260904205943 89 101 3.0 3.0 0.00 0.00 0.00 65 1011.9
20260904205438 89 176 3.0 5.0 0.00 0.00 0.00 64 1011.9